Notices

What's New in latest Release from April 7th, 2021:

- Updated Glossary, including Speed of Maximum Gust, and Total Hourly Precipitation

- Updated national and regional climate services offices contacts and prices information

- Addition of station inventory lists for 1981-2010, 1971-2000, and 1961-1990 Normals.

If you haven't already, please take our survey and provide feedback about our website: https://eccc.sondage-survey.ca/f/LanguageSelection.aspx?s=442ca660-fcf1-47c0-95a9-59707d6fd709

Hourly Data Report for January 07, 2012

HALIFAX STANFIELD INT'L A
NOVA SCOTIA

44°52'48.060" N
63°30'00.050" W
145.40 m
8202250
71395
YHZ

Download Data

Hourly Data (January 2012)
Hourly Data Report for January 7, 2012
TIME
LST
Temp Definition
°C
Dew Point Definition
°C
Rel Hum Definition
%
Precip. Amount Definition
mm

Wind Dir Definition
10's deg

Wind Spd Definition
km/h
Visibility Definition
km
Stn Press Definition
kPa
Hmdx Definition


Wind Chill Definition


Weather Definition


00:00 -7.3 -9.6 84   13 13 4.8 99.45   -13 Snow
01:00 -6.8 -8.5 88   11 15 9.7 99.37   -13 Snow
02:00 -6.4 -7.8 90   11 19 9.7 99.28   -13 Snow
03:00 -5.7 -6.7 93   12 13 4.8 99.25   -11 Snow
04:00 -4.7 -5.6 93   13 15 4.8 99.21   -10 Snow
05:00 -2.7 -3.2 96   14 20 12.9 99.12   -9 Cloudy
06:00 -1.7 -2.2 96   14 20 4.8 99.15   -7 Freezing Drizzle,Snow,Fog
07:00 -1.0 -1.2 99   14 26 2.4 99.14   -7 Freezing Drizzle,Fog
08:00 -0.1 -0.3 99   14 19 1.2 99.19   -5 Freezing Drizzle,Fog
09:00 0.3 0.1 99   13 15 1.2 99.20     Fog
10:00 0.5 0.4 99   13 19 0.6 99.21     Fog
11:00 0.9 0.8 99   11 15 0.4 99.18     Fog
12:00 1.6 1.6 100   10 17 0.4 99.02     Fog
13:00 2.0 2.0 100   14 9 0.4 99.09     Fog
14:00 2.3 2.3 100   15 9 0.4 99.08     Fog
15:00 2.6 2.5 99   12 6 0.4 99.09     Fog
16:00 2.5 2.5 100   11 9 0.4 99.05     Fog
17:00 2.4 2.2 99   13 15 0.2 98.98     Fog
18:00 2.3 2.3 100   13 11 0.2 98.93     Fog
19:00 2.4 2.3 99   14 17 0.2 98.87     Fog
20:00 2.6 2.6 100   13 19 0.2 98.78     Fog
21:00 2.7 2.7 100   14 13 0.4 98.73     Drizzle,Fog
22:00 2.8 2.8 100   18 7 0.6 98.67     Fog
23:00 3.1 3.1 100   20 4 0.4 98.60     Fog

Notes on Data Quality.

Legend

  • E = Estimated
  • M = Missing
  • NA = Not Available*
  • [empty] = Indicates an unobserved value
Date modified: